Showing default

FIREFLY-2, 62704

Orbit data source: Space-Track

FIREFLY-2, 62704 is a payload satellite owned by Pixxel (IN) in SSO that was launched on Tue, 14 Jan 2025 UTC via an FALCON 9 launch vehicle from the Air Force Western Test Range (AFWTR). Payload-class satellites include a variety of spacecraft equipped with specific instruments for various scientific and technological missions. These include communications satellites like Starlink; space stations such as the ISS; scientific satellites like the Hubble; Earth observation satellites from companies like Planet Labs, Umbra, and HawkEye 360; GPS; miniature CubeSats for education and research; and military/defense satellites.

Loading next visibility...
Identifier
62704, 2025-009CZ
Orbit
SSO
Country
Flag of ININ / IND
Related business
Manufacturer
Pixxel
Mission
Operational Commercial Imaging
Bus & Motor
FIREFLY, Unknown motor
Mass
60 kg wet, 60 kg dry
Launch date (UTC)
2025-01-14 (1 year ago)
Launch vehicle
FALCON 9
Launch site
Air Force Western Test Range (AFWTR)
Object type
Payload
Rocket body
Debris
Shape & HBR
Box + 2 Pan, 0.9 m
Radar Cross Section
0.338 m², Medium (>0.1 m² and < 1m²)

Expand to show TLE details & history
Last TLE update: 18 hours ago

TLE from 18 hours ago
0 FIREFLY-2
1 62704U 25009CZ  26034.47986526  .00002004  00000-0  19845-3 0  9993
2 62704  97.7134 115.1794 0005674 157.5164 202.6306 14.92928109 57377
Epoch: 2026-02-03T11:31Z
TLE epoch observation values (Epoch: 2026-02-03T11:31:00.358Z)
Latitude
0.00006°
Longitude
168.7677°
Altitude
595.506 km
Speed
7.56 km/s
True Right ascension
07h 40m 43s
True Declination
0° 00' 00"
Sunlit
Object was in full shadow at epoch
Visualization orbit readout
Latitude
Unknown
Longitude
Unknown
Altitude
Unknown
Speed
Unknown
Apparent Right ascension
Unknown
Apparent Declination
Unknown
Sunlit
N/A
Visualization observer readout
Local Sidereal Time
07:09:26
Azimuth
Unknown
Elevation
Unknown
Doppler factor
Unknown
Orbital elements
Apogee altitude
589.778 km
Perigee altitude
581.875 km
Semi-major axis
6,963.963 km
Eccentricity
0.00057
Inclination
97.7134°
RAAN
115.1794°
Arg. of periapsis
157.5164°
True anomaly
202.6056°
Mean anomaly
202.6306°
Eccentric anomaly
202.6181°
Mean motion
3.73472 °/min
Orbital period
96.39 mins
BSTAR
0.00019845
Loading maneuver chart data...
Computing Atmospheric mass density...
Loading historical data...
Loading historical data...
Loading historical data...
Loading historical data...
Loading historical data...
Loading historical data...
Loading historical data...

Documentation

Showing up to 5 results
|